This is the latest recevied weather packets stored in our database for station/object KE4EST. If no packets are shown the sender has not sent any weather packets the latest 10 day(s).
| Time | Temp. | Humidity | Pressure | Rain* | Wind** | Luminosity | Snow |
|---|---|---|---|---|---|---|---|
| 1778151793 | 15° C | 99% | 1011.5 hPa | 1.78 mm | - | 1 W/m² | - |
| 1778151490 | 15° C | 99% | 1011.5 hPa | 0 mm | - | 1 W/m² | - |
| 1778151187 | 15.56° C | 99% | 1011.9 hPa | 0 mm | - | 1 W/m² | - |
| 1778150884 | 15.56° C | 99% | 1011.2 hPa | 0 mm | - | 1 W/m² | - |
| 1778150580 | 15.56° C | 99% | 1010.9 hPa | 3.05 mm | - | 1 W/m² | - |
| 1778150276 | 15.56° C | 99% | 1011.1 hPa | 4.32 mm | - | 0 W/m² | - |
| 1778149973 | 15.56° C | 99% | 1011.5 hPa | 3.05 mm | - | 0 W/m² | - |
| 1778149669 | 15.56° C | 99% | 1011.9 hPa | 3.05 mm | - | 0 W/m² | - |
| 1778149366 | 15.56° C | 99% | 1012.1 hPa | 3.05 mm | - | 0 W/m² | - |
| 1778149061 | 15.56° C | 99% | 1012.4 hPa | 4.83 mm | - | 0 W/m² | - |
| 1778148752 | 15.56° C | 99% | 1012.5 hPa | 6.1 mm | - | 0 W/m² | - |
| 1778148449 | 15.56° C | 99% | 1012.4 hPa | 4.32 mm | - | 0 W/m² | - |
| 1778148147 | 15.56° C | 99% | 1012.7 hPa | 3.05 mm | - | 0 W/m² | - |
| 1778147845 | 15.56° C | 99% | 1012.3 hPa | 3.56 mm | - | 0 W/m² | - |
| 1778147541 | 15.56° C | 99% | 1011.5 hPa | 1.78 mm | - | 0 W/m² | - |
| 1778147238 | 15.56° C | 99% | 1011.7 hPa | 0 mm | - | 0 W/m² | - |
| 1778146935 | 15.56° C | 99% | 1011.6 hPa | 3.05 mm | - | 0 W/m² | - |
| 1778146632 | 15.56° C | 99% | 1012.1 hPa | 6.1 mm | - | 0 W/m² | - |
| 1778146331 | 15.56° C | 99% | 1011.9 hPa | 4.83 mm | - | 0 W/m² | - |
| 1778146027 | 15.56° C | 99% | 1012.6 hPa | 0 mm | - | 0 W/m² | - |
| 1778145724 | 15.56° C | 99% | 1012.3 hPa | 0 mm | - | 0 W/m² | - |
| 1778145420 | 15.56° C | 99% | 1011.6 hPa | 0 mm | - | 0 W/m² | - |
| 1778145117 | 15.56° C | 99% | 1011.4 hPa | 0 mm | - | 0 W/m² | - |
| 1778144812 | 15.56° C | 99% | 1011.6 hPa | 0 mm | - | 0 W/m² | - |
| 1778144509 | 15° C | 99% | 1011.9 hPa | 1.27 mm | - | 0 W/m² | - |
* Rain latest hour (hover to see other rain measurements)
** Current wind speed in m/s (hover to see current wind gust speed)